Nellis AFB, NV

4:54 PM PDT on May 27, 2018 (GMT -0700)
Nellis Air Force Base

Weather History for KLSV - July, 2013

Change the Weather History Date:

Thursday, July 4, 2013

  Actual Average Record
Temperature  
Mean Temperature 99 °F -  
Max Temperature 110 °F 102 °F 118 °F (1996)
Min Temperature 88 °F 75 °F 71 °F (2004)
Cooling Degree Days 34    
Growing Degree Days 49 (Base 50)    
Moisture  
Dew Point 49 °F    
Average Humidity 17    
Maximum Humidity 25    
Minimum Humidity 10    
Precipitation  
Precipitation 0.00 in - - ()
Sea Level Pressure  
Sea Level Pressure 29.59 in    
Wind  
Wind Speed 9 mph (SE)    
Max Wind Speed 18 mph    
Max Gust Speed 30 mph    
Visibility 10 miles    
Events      
Averages and records for this station are not official NWS values.
T = Trace of Precipitation, MM = Missing Value Source: NWS Daily Summary

Daily Weather History Graph

Daily Weather History Graph

Search for Another Location

Airport or City:

Astronomy

Jul. 04, 2013 Rise Set
Actual Time 5:27 AM PDT 8:01 PM PDT
Civil Twilight 4:57 AM PDT 8:31 PM PDT
Nautical Twilight 4:20 AM PDT 9:08 PM PDT
Astronomical Twilight 3:38 AM PDT 9:49 PM PDT
Moon 2:45 AM PDT (7/4) 5:11 PM PDT (7/4)
Length of Visible Light 15h 33m
Length of Day
14h 33m
Waning Crescent, 11% of the Moon is Illuminated
Jul 4
Waning Crescent
Jul 8
New
Jul 15
First Quarter
Jul 22
Full
Jul 29
Last Quarter

Hourly Weather History & Observations

Time (PDT) Temp. Heat Index Dew Point Humidity Pressure Visibility Wind Dir Wind Speed Gust Speed Precip Events Conditions
12:58 AM 100.4 °F - 42.6 °F 14% 29.59 in 10.0 mi North 5.8 mph - N/A   Partly Cloudy
1:58 AM 100.8 °F - 44.1 °F 14% 29.59 in 5.0 mi NW 8.1 mph 23.0 mph N/A   Haze
2:58 AM 97.2 °F - 46.0 °F 17% 29.58 in 6.0 mi North 5.8 mph - N/A   Haze
3:58 AM 93.2 °F - 46.6 °F 20% 29.57 in 7.0 mi North 4.6 mph - N/A   Clear
4:58 AM 88.2 °F - 44.4 °F 22% 29.59 in 10.0 mi ESE 8.1 mph - N/A   Clear
5:58 AM 93.2 °F - 44.6 °F 19% 29.60 in 10.0 mi East 9.2 mph - N/A   Clear
6:58 AM 93.9 °F - 45.0 °F 18% 29.60 in 10.0 mi East 8.1 mph - N/A   Clear
7:58 AM 98.8 °F - 44.2 °F 15% 29.61 in 10.0 mi East 8.1 mph - N/A   Clear
8:58 AM 101.3 °F - 45.0 °F 15% 29.62 in 10.0 mi ENE 2.3 mph - N/A   Clear
9:58 AM 103.1 °F - 46.0 °F 15% 29.62 in 10.0 mi East 4.6 mph - N/A   Clear
10:58 AM 104.9 °F - 45.5 °F 13% 29.62 in 10.0 mi ESE 10.4 mph - N/A   Clear
11:58 AM 106.3 °F - 45.0 °F 13% 29.62 in 10.0 mi SSE 11.5 mph - N/A   Clear
12:47 PM 107.6 °F - 46.4 °F 13% 29.71 in 10.0 mi SSE 13.8 mph - N/A   Clear
12:58 PM 108.7 °F - 46.4 °F 12% 29.61 in 10.0 mi Variable 5.8 mph 19.6 mph N/A   Clear
1:58 PM 108.0 °F - 45.9 °F 12% 29.58 in 10.0 mi South 9.2 mph - N/A   Clear
2:58 PM 110.1 °F - 46.6 °F 12% 29.55 in 10.0 mi South 11.5 mph - N/A   Clear
3:58 PM 110.5 °F - 46.4 °F 12% 29.52 in 10.0 mi Variable 1.2 mph - N/A   Clear
4:58 PM 110.5 °F - 43.0 °F 10% 29.49 in 10.0 mi SE 10.4 mph - N/A   Clear
5:58 PM 108.7 °F - 50.4 °F 14% 29.48 in 10.0 mi SSE 12.7 mph - N/A   Clear
6:58 PM 105.8 °F 103.7 °F 53.2 °F 17% 29.49 in 10.0 mi SE 16.1 mph - N/A   Clear
7:58 PM 104.5 °F 102.5 °F 53.8 °F 18% 29.49 in 10.0 mi SE 13.8 mph - N/A   Clear
8:58 PM 103.6 °F 101.8 °F 53.4 °F 19% 29.50 in 10.0 mi SE 15.0 mph - N/A   Scattered Clouds
9:17 PM 104.0 °F 102.3 °F 53.6 °F 19% 29.63 in 10.0 mi South 16.1 mph - N/A   Scattered Clouds
9:18 PM 104.0 °F 102.3 °F 53.6 °F 19% 29.63 in 10.0 mi SW 16.1 mph - N/A   Scattered Clouds
9:19 PM 104.0 °F 102.3 °F 53.6 °F 19% 29.64 in 10.0 mi West 15.0 mph - N/A   Mostly Cloudy
9:21 PM 104.0 °F 102.3 °F 53.6 °F 19% 29.63 in 10.0 mi WNW 18.4 mph 24.2 mph N/A   Mostly Cloudy
9:24 PM 104.0 °F 102.3 °F 53.6 °F 19% 29.63 in 10.0 mi WSW 17.3 mph 29.9 mph N/A   Mostly Cloudy
9:25 PM 104.0 °F 102.3 °F 53.6 °F 19% 29.63 in 10.0 mi SW 16.1 mph 29.9 mph N/A   Mostly Cloudy
9:31 PM 104.0 °F 102.3 °F 53.6 °F 19% 29.63 in 10.0 mi SSW 13.8 mph 29.9 mph N/A   Scattered Clouds
9:32 PM 104.0 °F 102.3 °F 53.6 °F 19% 29.63 in 10.0 mi SW 12.7 mph 29.9 mph N/A   Scattered Clouds
9:58 PM 102.0 °F 100.6 °F 54.7 °F 21% 29.55 in 10.0 mi North 6.9 mph - N/A   Clear
10:58 PM 100.2 °F - 49.6 °F 18% 29.57 in 10.0 mi WNW 13.8 mph 19.6 mph N/A   Clear
11:58 PM 96.6 °F 94.8 °F 55.0 °F 25% 29.57 in 10.0 mi NE 9.2 mph - N/A   Clear